Location: Austin
(30.3000°N, 97.7500°W)
Time: 08:09:12
(UTC-06:00)

Fermi - Pass Details

Date: 17 November 2025
Orbit: 492 x 503 km, 25.6° (Epoch: 07 December)

Event Time Altitude Azimuth Distance (km) Brightness Sun altitude
Rises 19:01:42 0° 263° (W) 2,566 8.9 -19.1°
Reaches altitude 10° 19:04:02 10° 254° (WSW) 1,686 7.5 -19.6°
Maximum altitude 19:07:36 35° 188° (S) 815 4.8 -20.4°
Enters shadow 19:08:35 30° 156° (SSE) 910 4.8 -20.6°
